Ogallala, NE

11:51 AM MST on January 17, 2018 (GMT -0700)
Searle

Weather History for KOGA - November, 2013

Change the Weather History Date:

Saturday, November 16, 2013

  Actual Average Record
Temperature  
Mean Temperature 44 °F -  
Max Temperature 58 °F 50 °F 75 °F (1954)
Min Temperature 30 °F 22 °F -8 °F (1955)
Degree Days  
Heating Degree Days 21    
Moisture  
Dew Point 28 °F    
Average Humidity 54    
Maximum Humidity 92    
Minimum Humidity 29    
Precipitation  
Precipitation 0.00 in - - ()
Sea Level Pressure  
Sea Level Pressure 29.39 in    
Wind  
Wind Speed 6 mph (WNW)    
Max Wind Speed 24 mph    
Max Gust Speed 29 mph    
Visibility 10 miles    
Events Rain    
Averages and records for this station are not official NWS values.
T = Trace of Precipitation, MM = Missing Value Source: NWS Daily Summary

Daily Weather History Graph

Daily Weather History Graph

Search for Another Location

Airport or City:

Trip Planner

Search our weather history database for the weather conditions in past years. The results will help you decide how hot, cold, wet, or windy it might be!

Date:

Astronomy

Nov. 16, 2013 Rise Set
Actual Time 6:36 AM MST 4:27 PM MST
Civil Twilight 6:06 AM MST 4:56 PM MST
Nautical Twilight 5:33 AM MST 5:30 PM MST
Astronomical Twilight 5:00 AM MST 6:02 PM MST
Moon 4:03 PM MST (11/16) 5:34 AM MST (11/16)
Length of Visible Light 10h 49m
Length of Day
9h 50m
Waxing Gibbous, 99% of the Moon is Illuminated
Nov 16
Waxing Gibbous
Nov 17
Full
Nov 25
Last Quarter
Dec 2
New
Dec 9
First Quarter

Hourly Weather History & Observations

Time (MST) Temp. Windchill Dew Point Humidity Pressure Visibility Wind Dir Wind Speed Gust Speed Precip Events Conditions
12:15 AM 36.0 °F - 31.1 °F 82% 29.40 in 10.0 mi Calm Calm - N/A   Clear
12:35 AM 36.1 °F - 30.9 °F 81% 29.38 in 10.0 mi Calm Calm - N/A   Clear
12:55 AM 33.3 °F - 29.3 °F 85% 29.39 in 10.0 mi Calm Calm - N/A   Clear
1:15 AM 31.8 °F 26.2 °F 28.6 °F 88% 29.39 in 10.0 mi West 5.8 mph - N/A   Clear
1:35 AM 32.0 °F 25.6 °F 29.8 °F 92% 29.39 in 10.0 mi WSW 6.9 mph - N/A   Clear
1:55 AM 31.8 °F 24.6 °F 29.5 °F 91% 29.39 in 10.0 mi WSW 8.1 mph - N/A   Clear
2:15 AM 30.2 °F 23.4 °F 27.9 °F 91% 29.38 in 10.0 mi West 6.9 mph - N/A   Clear
2:35 AM 31.3 °F 25.6 °F 28.8 °F 90% 29.37 in 10.0 mi West 5.8 mph - N/A   Clear
2:55 AM 32.0 °F 25.6 °F 29.8 °F 92% 29.36 in 10.0 mi WSW 6.9 mph - N/A   Clear
3:15 AM 34.2 °F 28.2 °F 31.1 °F 89% 29.36 in 10.0 mi WSW 6.9 mph - N/A   Clear
3:35 AM 37.8 °F 32.5 °F 32.0 °F 80% 29.37 in 10.0 mi West 6.9 mph - N/A   Clear
3:55 AM 37.4 °F 32.8 °F 32.0 °F 81% 29.35 in 10.0 mi NW 5.8 mph - N/A   Mostly Cloudy
4:15 AM 42.4 °F 35.7 °F 31.6 °F 66% 29.35 in 10.0 mi NW 12.7 mph - N/A   Scattered Clouds
4:35 AM 42.8 °F 38.0 °F 31.1 °F 63% 29.37 in 10.0 mi NW 8.1 mph - N/A   Mostly Cloudy
4:55 AM 43.0 °F 39.5 °F 30.7 °F 62% 29.37 in 10.0 mi WNW 5.8 mph - N/A   Mostly Cloudy
5:15 AM 41.9 °F 36.9 °F 30.2 °F 63% 29.37 in 10.0 mi West 8.1 mph - N/A   Mostly Cloudy
5:35 AM 41.4 °F 36.2 °F 29.5 °F 63% 29.37 in 10.0 mi NW 8.1 mph - N/A   Scattered Clouds
5:55 AM 39.4 °F - 28.8 °F 66% 29.38 in 10.0 mi Calm Calm - N/A   Scattered Clouds
6:15 AM 36.0 °F 31.1 °F 27.9 °F 72% 29.38 in 10.0 mi West 5.8 mph - N/A   Clear
6:35 AM 33.8 °F 25.3 °F 27.5 °F 78% 29.39 in 10.0 mi West 11.5 mph - N/A   Clear
6:55 AM 34.7 °F 27.5 °F 28.4 °F 78% 29.40 in 10.0 mi West 9.2 mph - N/A   Scattered Clouds
7:15 AM 35.2 °F 28.8 °F 27.7 °F 74% 29.41 in 10.0 mi West 8.1 mph - N/A   Scattered Clouds
7:35 AM 36.7 °F 29.9 °F 28.0 °F 71% 29.41 in 10.0 mi West 9.2 mph - N/A   Clear
7:55 AM 41.4 °F 37.6 °F 27.3 °F 57% 29.41 in 10.0 mi West 5.8 mph - N/A   Clear
8:15 AM 44.2 °F 38.4 °F 25.7 °F 48% 29.41 in 10.0 mi WNW 11.5 mph 17.3 mph N/A   Clear
8:35 AM 46.0 °F 42.5 °F 25.3 °F 44% 29.41 in 10.0 mi WNW 6.9 mph - N/A   Clear
8:55 AM 47.8 °F - 24.8 °F 41% 29.41 in 10.0 mi WNW 11.5 mph - N/A   Clear
9:15 AM 49.3 °F - 24.4 °F 38% 29.41 in 10.0 mi WNW 13.8 mph - N/A   Clear
9:35 AM 50.2 °F - 24.3 °F 36% 29.41 in 10.0 mi WNW 15.0 mph - N/A   Clear
9:55 AM 50.9 °F - 24.3 °F 35% 29.41 in 10.0 mi WNW 15.0 mph - N/A   Clear
10:15 AM 52.0 °F - 24.3 °F 34% 29.41 in 10.0 mi West 10.4 mph - N/A   Clear
10:35 AM 53.2 °F - 24.6 °F 33% 29.41 in 10.0 mi West 10.4 mph - N/A   Clear
10:55 AM 54.3 °F - 24.3 °F 31% 29.40 in 10.0 mi NW 10.4 mph - N/A   Clear
11:15 AM 55.0 °F - 23.5 °F 30% 29.40 in 10.0 mi NW 15.0 mph - N/A   Clear
11:35 AM 54.1 °F - 23.5 °F 31% 29.39 in 10.0 mi NW 11.5 mph - N/A   Clear
11:55 AM 56.3 °F - 25.5 °F 31% 29.38 in 10.0 mi WNW 11.5 mph - N/A   Clear
12:15 PM 56.3 °F - 26.2 °F 32% 29.37 in 10.0 mi West 6.9 mph - N/A   Clear
12:35 PM 56.8 °F - 27.1 °F 32% 29.37 in 10.0 mi West 5.8 mph - N/A   Clear
12:55 PM 56.5 °F - 27.0 °F 32% 29.36 in 10.0 mi WSW 4.6 mph - N/A   Clear
1:15 PM 58.1 °F - 26.8 °F 30% 29.35 in 10.0 mi West 5.8 mph - N/A   Clear
1:35 PM 57.7 °F - 25.7 °F 29% 29.35 in 10.0 mi SW 5.8 mph - N/A   Clear
1:55 PM 57.2 °F - 25.5 °F 30% 29.35 in 10.0 mi SW 8.1 mph - N/A   Clear
2:15 PM 56.8 °F - 26.4 °F 31% 29.36 in 10.0 mi SW 6.9 mph - N/A   Clear
2:35 PM 56.7 °F - 26.8 °F 32% 29.35 in 10.0 mi SSW 5.8 mph - N/A   Clear
2:55 PM 55.8 °F - 26.2 °F 32% 29.35 in 10.0 mi South 3.5 mph - N/A   Clear
3:15 PM 55.4 °F - 27.5 °F 34% 29.36 in 10.0 mi South 3.5 mph - N/A   Clear
3:35 PM 54.5 °F - 28.2 °F 36% 29.36 in 10.0 mi Calm Calm - N/A   Clear
3:55 PM 53.6 °F - 29.3 °F 39% 29.36 in 10.0 mi Calm Calm - N/A   Clear
4:15 PM 49.6 °F - 30.2 °F 47% 29.36 in 10.0 mi Calm Calm - N/A   Scattered Clouds
4:35 PM 50.7 °F - 28.4 °F 42% 29.37 in 10.0 mi Calm Calm - N/A   Clear
4:55 PM 45.3 °F 42.3 °F 28.9 °F 53% 29.38 in 10.0 mi North 5.8 mph - N/A   Clear
5:15 PM 43.7 °F 41.1 °F 29.3 °F 57% 29.37 in 10.0 mi NNE 4.6 mph - N/A   Scattered Clouds
5:35 PM 41.7 °F - 28.6 °F 60% 29.39 in 10.0 mi Calm Calm - N/A   Clear
5:55 PM 41.5 °F 37.8 °F 29.7 °F 63% 29.40 in 10.0 mi North 5.8 mph - N/A   Clear
6:15 PM 45.7 °F - 30.9 °F 56% 29.41 in 10.0 mi Calm Calm - N/A   Mostly Cloudy
6:35 PM 42.4 °F - 29.8 °F 61% 29.40 in 10.0 mi Calm Calm - N/A   Mostly Cloudy
6:55 PM 42.6 °F - 30.0 °F 61% 29.40 in 10.0 mi Calm Calm - N/A   Scattered Clouds
7:15 PM 42.4 °F - 29.3 °F 60% 29.41 in 10.0 mi Calm Calm - N/A   Scattered Clouds
7:35 PM 44.1 °F 42.5 °F 29.7 °F 57% 29.42 in 10.0 mi NNW 3.5 mph - N/A   Mostly Cloudy
7:55 PM 43.9 °F 41.3 °F 30.7 °F 60% 29.42 in 10.0 mi NW 4.6 mph - N/A   Overcast
8:15 PM 45.7 °F 40.2 °F 29.8 °F 54% 29.44 in 10.0 mi NW 11.5 mph - N/A   Overcast
8:35 PM 50.0 °F - 32.0 °F 50% 29.43 in 10.0 mi NW 24.2 mph 28.8 mph N/A   Overcast
8:55 PM 50.9 °F - 32.0 °F 48% 29.44 in 10.0 mi WNW 23.0 mph 26.5 mph N/A   Overcast
9:15 PM 50.2 °F - 32.0 °F 50% 29.44 in 10.0 mi NW 17.3 mph 21.9 mph N/A   Overcast
9:35 PM 50.0 °F - 31.6 °F 49% 29.43 in 10.0 mi WNW 10.4 mph 17.3 mph N/A   Overcast
9:55 PM 50.0 °F - 31.1 °F 48% 29.43 in 10.0 mi WNW 9.2 mph - N/A   Overcast
10:15 PM 50.2 °F - 30.6 °F 47% 29.44 in 10.0 mi West 18.4 mph 26.5 mph N/A Rain Light Rain
10:35 PM 50.4 °F - 27.9 °F 42% 29.44 in 10.0 mi West 10.4 mph - N/A   Overcast
10:55 PM 50.0 °F - 26.4 °F 40% 29.44 in 10.0 mi West 11.5 mph - N/A   Overcast
11:15 PM 50.0 °F - 23.7 °F 36% 29.44 in 10.0 mi WNW 17.3 mph 21.9 mph N/A   Overcast
11:35 PM 48.2 °F - 25.3 °F 41% 29.45 in 10.0 mi West 13.8 mph - N/A   Scattered Clouds
11:55 PM 47.5 °F - 25.3 °F 42% 29.45 in 10.0 mi West 13.8 mph - N/A   Scattered Clouds